Location: Copper Mountain Observatory
(34.1350°N, 116.3120°W)
Time: 12:56:14
(UTC-07:00)

Daily predictions for brighter satellites

Satellite Brightness Start Highest point End
(mag) Time Altitude Azimuth Time Altitude Azimuth Time Altitude Azimuth
FengYun 1-2 T 4.4 20:06:20 10° SSE 20:11:56 86° WSW 20:17:38 10° NNW
NOSS 2-2 (C) 3.5 20:14:41 10° SSW 20:18:43 88° SE 20:23:11 10° NNE
H-2A R/B 3.9 20:16:34 10° E 20:18:57 15° ENE 20:21:19 10° NNE
USA 186 1.9 20:16:55 10° SSE 20:19:52 52° ENE 20:23:00 10° N
Cosmos 2181 Rocket 4.1 20:16:53 10° N 20:23:21 89° WNW 20:29:42 10° S
CZ-4B DEB 4.0 20:20:28 10° S 20:23:36 45° W 20:26:47 10° NNW
PSLV R/B 4.3 20:21:30 10° NW 20:24:45 41° NNE 20:28:04 10° E
ERBS 3.4 20:22:50 10° NNW 20:26:01 33° NE 20:29:06 10° ESE
Envisat 4.3 20:23:38 10° ESE 20:27:33 23° ENE 20:31:28 10° NNE
ATLAS 5 CENTAUR R/B 2.8 20:22:27 10° NNW 20:28:22 50° NE 20:34:33 10° SE
Cosmos 1624 Rocket 4.0 20:24:10 10° S 20:29:25 79° ESE 20:34:43 10° NNE
GPS 2-05 Rocket1 3.2 20:25:52 10° WSW 20:29:28 51° SSE 20:33:02 10° E
Okean 1-7 3.5 20:27:48 10° NNW 20:32:04 63° W 20:36:20 10° S
CZ-4 DEB 3.2 20:30:22 10° SSE 20:33:22 42° ENE 20:36:24 10° N
Abrixas rocket 2.8 20:32:01 10° WNW 20:35:22 52° SW 20:38:25 12° SE
COSMOS 2406 3.5 20:30:24 10° N 20:36:00 52° ENE 20:41:21 11° SE
OAO 3 Rocket 4.4 20:32:37 10° SSW 20:36:28 23° SSE 20:40:01 11° E
Cosmos 2074 Rocket 4.0 20:30:47 10° S 20:37:02 73° E 20:43:17 10° N
Cosmos 1825 3.8 20:39:30 14° ESE 20:41:05 17° E 20:43:36 10° NE
Cosmos 1408 4.3 20:41:20 14° ESE 20:42:36 17° E 20:44:59 10° NE
Resurs 01 Rocket 4.3 20:40:23 10° SW 20:43:31 19° W 20:46:41 10° NW
Cosmos 2278 Rocket 2.9 20:38:54 10° SSE 20:43:46 31° ESE 20:48:40 10° NE
ERS-1 Rocket 3.2 20:42:37 10° SSE 20:47:32 55° ENE 20:52:26 10° N
Cosmos 1844 3.8 20:42:23 10° S 20:47:56 55° ESE 20:53:34 10° NNE
Cosmos 407 Rocket 4.2 20:43:27 10° N 20:48:20 37° ENE 20:52:01 16° SE
Cosmos 1844 Rocket 2.6 20:43:30 10° SSW 20:49:08 78° ESE 20:54:48 10° NNE
Cosmos 1674 Rocket 3.9 20:45:18 10° N 20:49:35 45° E 20:53:06 14° SSE
Sich 1 Rocket 3.8 20:47:48 10° SSE 20:52:13 51° E 20:56:41 10° NNE
Cosmos 1452 Rocket 3.7 20:48:30 10° S 20:53:30 47° ESE 20:58:32 10° NNE
Meteosat 1 Rocket2 4.4 20:51:29 10° WSW 20:56:59 54° S 21:04:00 15° ESE
Centaur AC-119 3.1 20:55:38 10° SW 20:57:06 14° S 20:57:11 14° S
Cosmos 1862 4.0 20:54:56 16° SSE 20:57:35 34° E 21:01:18 10° NNE
Meteor 1-10 Rocket 4.2 20:54:13 10° N 21:00:02 76° E 21:05:32 11° SSE
Cosmos 1190 Rocket 4.0 20:56:59 10° N 21:02:08 63° ENE 21:05:50 19° SSE
Coronas F rocket 3.7 21:01:56 10° SW 21:04:10 24° W 21:06:24 10° NNW
BREEZE-M DEB (TANK) 2.2 21:03:36 10° NW 21:05:42 71° NE 21:07:23 26° ESE
Cosmos 2082 Rocket 4.3 21:05:06 10° NE 21:06:25 11° NE 21:07:44 10° ENE
EO 1 Delta rocket 4.2 21:01:46 10° NNE 21:07:38 60° E 21:12:16 11° S
NOSS 5 (C) 4.4 21:05:49 10° SSW 21:09:32 83° WNW 21:12:42 10° NNE
Meteor 2-10 Rocket 4.2 21:04:18 10° NNW 21:10:01 63° W 21:15:33 10° S
CZ-4B R/B 4.4 21:07:10 10° NE 21:11:13 25° E 21:12:03 24° ESE
Cosmos 1184 Rocket 3.6 21:12:21 31° E 21:12:29 32° E 21:15:29 10° NNE
USA 234 4.0 21:08:53 10° ENE 21:14:15 27° ESE 21:19:35 10° S
Cosmos 2341 Rocket 4.1 21:09:51 12° SSE 21:15:36 55° E 21:21:42 10° NNE
Cosmos 1975 Rocket 4.0 21:15:31 10° NNE 21:19:18 29° ENE 21:19:59 27° E
PSLV R/B 4.1 21:22:40 30° ENE 21:22:40 30° ENE 21:25:01 10° N
Cosmos 1606 2.7 21:20:28 10° N 21:24:23 70° E 21:25:47 37° SSE
Cosmos 1908 Rocket 3.6 21:20:47 11° S 21:25:01 84° W 21:29:28 10° N
Cosmos 1782 3.4 21:24:01 10° NNW 21:27:58 56° W 21:30:42 19° SSW
Meteor 1-27 Rocket 3.6 21:23:03 10° N 21:28:37 78° E 21:31:46 26° SSE
H-2A R/B 2.7 21:29:07 10° WSW 21:29:11 10° WSW 21:29:11 10° WSW
deb Chang Zheng 4 4.3 21:27:34 10° N 21:31:54 56° WNW 21:36:14 10° SSW
Cosmos 1378 Rocket 3.4 21:28:16 10° N 21:32:34 69° E 21:33:55 42° SSE
Cosmos 676 Rocket 3.9 21:27:22 10° NNW 21:32:35 72° ENE 21:34:45 35° SSE
Cosmos 1939 Rocket 3.3 21:30:37 24° S 21:32:46 55° W 21:36:36 10° NNW
Cosmos 2084 3.9 21:29:06 10° SW 21:32:55 55° NW 21:36:41 10° NNE
SL-8 Rocket 4.4 21:30:26 30° SE 21:32:57 43° E 21:38:47 10° NNE
Cosmos 962 Rocket 4.4 21:27:58 14° S 21:33:18 77° E 21:39:30 10° N
Centaur D-1A AC-32 3.4 21:30:59 10° WSW 21:34:25 23° S 21:34:25 23° S
Cosmos 1174 3.6 21:33:01 10° NNW 21:35:46 48° NE 21:35:46 48° NE
USA 245 4.1 21:38:18 29° NE 21:38:18 29° NE 21:41:02 10° N
Cosmos 1954 Rocket 4.1 21:32:49 10° N 21:37:59 61° ENE 21:39:39 40° SE
ISS -1.9 21:35:10 10° WSW 21:38:15 38° NW 21:41:19 10° NNE
COS B Rocket 3.3 21:34:41 10° N 21:38:41 73° W 21:39:59 38° SSW
CENTAUR R/B 3.9 21:32:13 10° NW 21:39:47 46° WSW 21:46:17 15° S
SL-27 R/B 4.0 21:38:25 10° NW 21:41:41 32° W 21:43:10 23° SW
Cosmos 2154 Rocket 4.3 21:37:22 10° SSW 21:43:33 67° W 21:49:44 10° N
Atlas Centaur 2 2.1 21:43:46 10° WSW 21:46:17 33° SW 21:46:17 33° SW
Terra 3.6 21:47:55 18° ENE 21:47:55 18° ENE 21:50:59 10° NNE
Cosmos 1238 Rocket 2.4 21:44:37 10° N 21:47:57 86° W 21:48:12 76° SSW
SPOT 5 3.1 21:45:33 33° S 21:47:57 80° WSW 21:53:20 10° NNW
FALCON 9 R/B 4.5 21:09:55 10° WNW 21:50:33 55° SW 21:57:15 28° SSE
MetOp-B 4.0 21:48:36 40° SSE 21:50:38 87° ENE 21:56:01 10° NNW
CZ-3A R/B 4.0 21:41:42 10° W 21:52:13 26° SW 21:53:31 24° SSW
Cosmos 1295 Rocket 4.4 21:51:01 28° S 21:54:36 82° E 22:00:55 10° N
H-2A R/B 3.2 21:52:35 24° SSW 21:54:37 40° W 21:58:39 10° NNW
COSMOS 2487 2.7 21:51:58 10° NNW 21:55:09 64° NNE 21:55:09 64° NNE
UNK 4.5 21:49:26 10° NNE 21:55:39 83° WNW 22:00:11 18° SSW
SL-08 RB Rocket 4.0 22:01:26 52° ENE 22:01:26 52° ENE 22:05:55 10° N
Centaur AC-125 4.3 21:45:44 10° WSW 22:04:19 40° S 22:05:09 38° SSE
Cosmos 1023 Rocket 4.3 21:59:44 10° NNW 22:04:51 72° ENE 22:05:25 65° ESE
APEX 3.4 22:05:23 72° W 22:05:34 73° WNW 22:10:12 10° NNE
Envisat 4.3 22:03:22 19° SSW 22:06:19 34° W 22:10:56 10° NNW
ARGOS 3.0 22:05:27 59° SE 22:06:22 73° ENE 22:11:43 10° N
Cosmos 489 Rocket 4.3 22:00:33 10° NNW 22:06:47 83° ENE 22:08:24 52° SSE
GPS 2-05 Rocket1 3.8 22:04:06 10° W 22:06:51 47° WNW 22:06:51 47° WNW
Cosmos 2366 rocket 3.9 22:11:32 54° SE 22:12:47 67° E 22:19:02 10° NNE
ATLAS 5 CENTAUR R/B 4.1 22:07:50 10° WNW 22:12:53 26° WSW 22:16:08 18° SSW
YAOGAN 6 3.7 22:15:44 39° WNW 22:15:44 39° WNW 22:18:37 10° NNW
Cosmos 1825 4.4 22:14:23 15° WSW 22:16:30 22° WNW 22:19:34 10° NNW
CZ-3C R/B 3.6 22:00:41 10° WSW 22:17:06 28° SSW 22:17:41 28° S
OAO 3 Rocket 4.1 22:14:43 10° WSW 22:17:54 39° SW 22:17:54 39° SW
Okean 2 Rocket 4.3 22:20:09 29° WSW 22:21:41 38° W 22:25:48 10° N
H-2A R/B 2.4 22:24:55 55° ENE 22:24:55 55° ENE 22:30:00 10° N
Cosmos 1242 Rocket 3.9 22:23:00 10° NNW 22:25:39 38° NW 22:25:39 38° NW
Cosmos 2278 Rocket 3.9 22:22:46 10° WSW 22:27:44 31° WNW 22:32:44 10° N
Meteor 1-14 Rocket 4.5 22:28:35 45° SW 22:30:11 65° W 22:35:47 10° N
Cosmos 614 Rocket 3.9 22:25:37 10° NNW 22:30:21 75° NNE 22:30:21 75° NNE
Meteor 1-18 Rocket 4.4 22:25:28 10° N 22:31:17 62° ENE 22:31:17 62° ENE
Cosmos 1833 Rocket 3.3 22:26:31 10° N 22:31:40 43° ENE 22:31:40 43° ENE
Cosmos 1140 Rocket 3.9 22:33:40 10° NNW 22:38:39 51° WSW 22:38:44 51° WSW
Cosmos 2218 Rocket 4.3 22:37:00 42° SW 22:39:06 64° W 22:45:29 10° N
SPOT 1/Viking Rocket 4.3 22:39:37 42° WSW 22:40:10 44° W 22:45:09 10° NNW
Cosmos 2082 Rocket 2.3 22:45:37 10° NNW 22:50:49 74° N 22:50:49 74° N
USA 234 3.4 22:51:00 10° NE 22:57:28 68° NW 23:03:56 10° SW
Cosmos 1727 Rocket 4.0 22:52:56 10° N 22:59:05 74° W 22:59:09 73° W
Terra 3.5 23:26:49 30° WNW 23:26:49 30° WNW 23:29:41 10° NNW
Cosmos 1821 Rocket 4.4 23:31:18 58° NNE 23:31:18 58° NNE 23:36:14 10° N
Cosmos 2369 Rocket 3.8 23:39:18 27° NE 23:39:18 27° NE 23:41:50 10° NNE
Lacrosse 5 3.9 23:48:56 22° NNE 23:48:56 22° NNE 23:50:48 10° NNE
USA 229 DEB 4.3 23:41:50 10° NW 23:47:41 50° W 23:47:41 50° W
USA 229 4.3 23:41:56 10° NW 23:47:47 51° W 23:47:47 51° W
